Time,TemperatureF,DewpointF,PressureIn,WindDirection,WindDirectionDegrees,WindSpeedMPH,WindSpeedGustMPH,Humidity,HourlyPrecipIn,Conditions,Clouds,dailyrainin,SolarRadiationWatts/m^2,SoftwareType,DateUTC
2013-04-08 00:00:00,71.1,61.6,29.53,ESE,123,11.0,25.0,72,0.00,,---,0.00,0.00,VWS V14.01,2013-04-08 05:00:00,
2013-04-08 00:05:00,71.0,61.9,29.53,SE,130,10.0,22.0,73,0.00,,---,0.00,0.00,VWS V14.01,2013-04-08 05:05:00,
2013-04-08 00:10:00,70.9,61.8,29.53,SE,140,14.0,22.0,73,0.00,,---,0.00,0.00,VWS V14.01,2013-04-08 05:10:00,
2013-04-08 00:15:00,70.6,61.5,29.53,SE,135,11.0,22.0,73,0.00,,---,0.00,0.00,VWS V14.01,2013-04-08 05:15:00,
2013-04-08 00:20:00,70.5,61.4,29.53,SE,146,14.0,22.0,73,0.00,,---,0.00,0.00,VWS V14.01,2013-04-08 05:20:00,
2013-04-08 00:25:00,70.4,61.3,29.53,SSE,160,13.0,22.0,73,0.00,,---,0.00,0.00,VWS V14.01,2013-04-08 05:25:00,
2013-04-08 00:30:00,70.4,61.3,29.53,SE,142,11.0,22.0,73,0.00,,---,0.00,0.00,VWS V14.01,2013-04-08 05:30:00,
2013-04-08 00:35:00,70.4,61.3,29.53,SE,136,7.0,15.0,73,0.00,,---,0.00,0.00,VWS V14.01,2013-04-08 05:35:00,
2013-04-08 00:40:00,70.2,61.2,29.53,SE,145,9.0,16.0,73,0.00,,---,0.00,0.00,VWS V14.01,2013-04-08 05:40:00,
2013-04-08 00:45:00,70.1,61.4,29.53,SSE,149,16.0,17.0,74,0.00,,---,0.00,0.00,VWS V14.01,2013-04-08 05:45:00,
2013-04-08 00:50:00,70.1,61.4,29.53,SSE,155,5.0,17.0,74,0.00,,---,0.00,0.00,VWS V14.01,2013-04-08 05:50:00,
2013-04-08 00:55:00,69.9,61.2,29.53,SE,138,3.0,17.0,74,0.00,,---,0.00,0.00,VWS V14.01,2013-04-08 05:55:00,
2013-04-08 01:00:00,69.8,61.2,29.53,SSE,150,4.0,17.0,74,0.00,,---,0.00,0.00,VWS V14.01,2013-04-08 06:00:00,
2013-04-08 01:05:00,69.6,61.0,29.53,SE,144,8.0,12.0,74,0.00,,---,0.00,0.00,VWS V14.01,2013-04-08 06:05:00,
2013-04-08 01:10:00,69.5,60.9,29.53,SSE,148,5.0,12.0,74,0.00,,---,0.00,0.00,VWS V14.01,2013-04-08 06:10:00,
2013-04-08 01:15:00,69.4,60.8,29.52,SE,144,9.0,12.0,74,0.00,,---,0.00,0.00,VWS V14.01,2013-04-08 06:15:00,
2013-04-08 01:20:00,69.4,60.8,29.52,SSE,153,6.0,15.0,74,0.00,,---,0.00,0.00,VWS V14.01,2013-04-08 06:20:00,
2013-04-08 01:25:00,69.4,60.8,29.52,SE,141,11.0,15.0,74,0.00,,---,0.00,0.00,VWS V14.01,2013-04-08 06:25:00,
2013-04-08 01:30:00,69.4,60.8,29.52,SSE,157,10.0,15.0,74,0.00,,---,0.00,0.00,VWS V14.01,2013-04-08 06:30:00,
2013-04-08 01:35:00,69.3,60.7,29.52,SSE,153,11.0,17.0,74,0.00,,---,0.00,0.00,VWS V14.01,2013-04-08 06:35:00,
2013-04-08 01:40:00,69.2,60.6,29.52,SSE,150,12.0,18.0,74,0.00,,---,0.00,0.00,VWS V14.01,2013-04-08 06:40:00,
2013-04-08 01:45:00,69.2,60.6,29.52,SE,140,10.0,18.0,74,0.00,,---,0.00,0.00,VWS V14.01,2013-04-08 06:45:00,
2013-04-08 01:50:00,69.2,60.6,29.52,SSE,149,8.0,18.0,74,0.00,,---,0.00,0.00,VWS V14.01,2013-04-08 06:50:00,
2013-04-08 01:55:00,69.2,60.6,29.52,SSE,156,7.0,18.0,74,0.00,,---,0.00,0.00,VWS V14.01,2013-04-08 06:55:00,
2013-04-08 02:00:00,69.2,60.6,29.52,SE,141,11.0,18.0,74,0.00,,---,0.00,0.00,VWS V14.01,2013-04-08 07:00:00,
2013-04-08 02:05:00,69.2,60.6,29.52,SE,141,7.0,17.0,74,0.00,,---,0.00,0.00,VWS V14.01,2013-04-08 07:05:00,
2013-04-08 02:10:00,69.2,60.6,29.52,SSE,150,5.0,17.0,74,0.00,,---,0.00,0.00,VWS V14.01,2013-04-08 07:10:00,
2013-04-08 02:15:00,69.2,60.6,29.52,SE,146,11.0,17.0,74,0.00,,---,0.00,0.00,VWS V14.01,2013-04-08 07:15:00,
2013-04-08 02:20:00,69.0,60.4,29.52,SE,146,11.0,17.0,74,0.00,,---,0.00,0.00,VWS V14.01,2013-04-08 07:20:00,
2013-04-08 02:25:00,68.9,60.3,29.52,SE,137,8.0,17.0,74,0.00,,---,0.00,0.00,VWS V14.01,2013-04-08 07:25:00,
2013-04-08 02:30:00,68.7,60.1,29.52,SSE,150,5.0,17.0,74,0.00,,---,0.00,0.00,VWS V14.01,2013-04-08 07:30:00,
2013-04-08 02:35:00,68.6,60.0,29.52,SSE,155,4.0,11.0,74,0.00,,---,0.00,0.00,VWS V14.01,2013-04-08 07:35:00,
2013-04-08 02:40:00,68.5,59.9,29.52,SE,139,9.0,11.0,74,0.00,,---,0.00,0.00,VWS V14.01,2013-04-08 07:40:00,
2013-04-08 02:45:00,68.3,60.1,29.52,SSE,160,6.0,11.0,75,0.00,,---,0.00,0.00,VWS V14.01,2013-04-08 07:45:00,
2013-04-08 02:50:00,68.1,59.9,29.52,SSE,147,7.0,11.0,75,0.00,,---,0.00,0.00,VWS V14.01,2013-04-08 07:50:00,
2013-04-08 02:55:00,67.9,59.7,29.52,SSE,153,7.0,11.0,75,0.00,,---,0.00,0.00,VWS V14.01,2013-04-08 07:55:00,
2013-04-08 03:00:00,67.5,59.7,29.51,SSE,151,6.0,11.0,76,0.00,,---,0.00,0.00,VWS V14.01,2013-04-08 08:00:00,
2013-04-08 03:05:00,67.2,59.4,29.51,SSE,150,5.0,8.0,76,0.00,,---,0.00,0.00,VWS V14.01,2013-04-08 08:05:00,
2013-04-08 03:10:00,66.8,59.4,29.51,SSE,156,3.0,9.0,77,0.00,,---,0.00,0.00,VWS V14.01,2013-04-08 08:10:00,
2013-04-08 03:15:00,66.6,59.2,29.51,SSE,155,6.0,9.0,77,0.00,,---,0.00,0.00,VWS V14.01,2013-04-08 08:15:00,
2013-04-08 03:20:00,66.4,59.3,29.51,SE,144,4.0,11.0,78,0.00,,---,0.00,0.00,VWS V14.01,2013-04-08 08:20:00,
2013-04-08 03:25:00,66.3,59.6,29.51,SE,146,6.0,11.0,79,0.00,,---,0.00,0.00,VWS V14.01,2013-04-08 08:25:00,
2013-04-08 03:31:00,66.3,59.6,29.51,SE,142,13.0,13.0,79,0.00,,---,0.00,0.00,VWS V14.01,2013-04-08 08:31:00,
2013-04-08 03:36:00,66.4,59.7,29.50,SE,129,8.0,16.0,79,0.00,,---,0.00,0.00,VWS V14.01,2013-04-08 08:36:00,
2013-04-08 03:41:00,66.5,59.8,29.50,SSE,147,8.0,16.0,79,0.00,,---,0.00,0.00,VWS V14.01,2013-04-08 08:41:00,
2013-04-08 03:46:00,66.5,59.8,29.50,SSE,148,17.0,17.0,79,0.00,,---,0.00,0.00,VWS V14.01,2013-04-08 08:46:00,
2013-04-08 03:51:00,66.6,59.9,29.50,SSE,155,13.0,18.0,79,0.00,,---,0.00,0.00,VWS V14.01,2013-04-08 08:51:00,
2013-04-08 03:55:00,66.6,59.9,29.50,SE,138,10.0,18.0,79,0.00,,---,0.00,0.00,VWS V14.01,2013-04-08 08:55:00,
2013-04-08 04:01:00,66.6,59.9,29.50,SSE,160,12.0,18.0,79,0.00,,---,0.00,0.00,VWS V14.01,2013-04-08 09:01:00,
2013-04-08 04:06:00,66.7,60.0,29.50,SSE,158,12.0,19.0,79,0.00,,---,0.00,0.00,VWS V14.01,2013-04-08 09:06:00,
2013-04-08 04:11:00,66.7,60.0,29.50,SSE,149,11.0,19.0,79,0.00,,---,0.00,0.00,VWS V14.01,2013-04-08 09:11:00,
2013-04-08 04:16:00,66.7,60.0,29.50,SE,144,7.0,19.0,79,0.00,,---,0.00,0.00,VWS V14.01,2013-04-08 09:16:00,
2013-04-08 04:21:00,66.8,60.1,29.51,SSE,159,5.0,19.0,79,0.00,,---,0.00,0.00,VWS V14.01,2013-04-08 09:21:00,
2013-04-08 04:26:00,66.8,60.1,29.50,SSE,153,9.0,19.0,79,0.00,,---,0.00,0.00,VWS V14.01,2013-04-08 09:26:00,
2013-04-08 04:30:00,66.8,60.1,29.51,SSE,155,9.0,19.0,79,0.00,,---,0.00,0.00,VWS V14.01,2013-04-08 09:30:00,
2013-04-08 04:35:00,66.8,60.1,29.51,South,174,11.0,14.0,79,0.00,,---,0.00,0.00,VWS V14.01,2013-04-08 09:35:00,
2013-04-08 04:40:00,66.8,60.1,29.51,SSE,157,11.0,14.0,79,0.00,,---,0.00,0.00,VWS V14.01,2013-04-08 09:40:00,
2013-04-08 04:45:00,66.8,60.1,29.50,SSE,152,8.0,16.0,79,0.00,,---,0.00,0.00,VWS V14.01,2013-04-08 09:45:00,
2013-04-08 04:50:00,66.9,59.8,29.50,SSE,147,6.0,16.0,78,0.00,,---,0.00,0.00,VWS V14.01,2013-04-08 09:50:00,
2013-04-08 04:55:00,66.9,59.8,29.50,SSE,152,9.0,16.0,78,0.00,,---,0.00,0.00,VWS V14.01,2013-04-08 09:55:00,
2013-04-08 05:00:00,66.9,59.8,29.50,SSE,160,8.0,16.0,78,0.00,,---,0.00,0.00,VWS V14.01,2013-04-08 10:00:00,
2013-04-08 05:05:00,66.9,59.8,29.50,SE,144,11.0,15.0,78,0.00,,---,0.00,0.00,VWS V14.01,2013-04-08 10:05:00,
2013-04-08 05:10:00,66.9,59.8,29.50,SSE,157,6.0,16.0,78,0.00,,---,0.00,0.00,VWS V14.01,2013-04-08 10:10:00,
2013-04-08 05:15:00,66.9,59.8,29.50,SSE,148,6.0,16.0,78,0.00,,---,0.00,0.00,VWS V14.01,2013-04-08 10:15:00,
2013-04-08 05:20:00,66.8,59.7,29.50,SSE,165,8.0,16.0,78,0.00,,---,0.00,0.00,VWS V14.01,2013-04-08 10:20:00,
2013-04-08 05:26:00,66.7,59.6,29.51,South,180,4.0,16.0,78,0.00,,---,0.00,0.00,VWS V14.01,2013-04-08 10:26:00,
2013-04-08 05:31:00,66.7,59.6,29.51,SSE,168,3.0,16.0,78,0.00,,---,0.00,0.00,VWS V14.01,2013-04-08 10:31:00,
2013-04-08 05:35:00,66.8,59.7,29.51,South,179,3.0,11.0,78,0.00,,---,0.00,0.00,VWS V14.01,2013-04-08 10:35:00,
2013-04-08 05:40:00,66.8,59.7,29.51,SSE,168,3.0,13.0,78,0.00,,---,0.00,0.00,VWS V14.01,2013-04-08 10:40:00,
2013-04-08 05:45:00,66.7,59.6,29.51,South,180,5.0,13.0,78,0.00,,---,0.00,0.00,VWS V14.01,2013-04-08 10:45:00,
2013-04-08 05:51:00,66.6,59.5,29.51,SSW,194,7.0,13.0,78,0.00,,---,0.00,0.00,VWS V14.01,2013-04-08 10:51:00,
2013-04-08 05:56:00,66.5,59.4,29.52,South,178,5.0,13.0,78,0.00,,---,0.00,0.00,VWS V14.01,2013-04-08 10:56:00,
2013-04-08 06:01:00,66.3,59.6,29.52,SSE,156,6.0,13.0,79,0.00,,---,0.00,0.00,VWS V14.01,2013-04-08 11:01:00,
2013-04-08 06:06:00,66.2,59.5,29.52,South,171,6.0,10.0,79,0.00,,---,0.00,0.00,VWS V14.01,2013-04-08 11:06:00,
2013-04-08 06:11:00,66.1,59.4,29.52,South,169,6.0,10.0,79,0.00,,---,0.00,0.00,VWS V14.01,2013-04-08 11:11:00,
2013-04-08 06:16:00,66.0,59.7,29.52,South,177,3.0,11.0,80,0.00,,---,0.00,0.00,VWS V14.01,2013-04-08 11:16:00,
2013-04-08 06:21:00,65.9,59.2,29.52,South,179,4.0,11.0,79,0.00,,---,0.00,0.00,VWS V14.01,2013-04-08 11:21:00,
2013-04-08 06:26:00,65.8,59.5,29.52,South,181,2.0,11.0,80,0.00,,---,0.00,0.00,VWS V14.01,2013-04-08 11:26:00,
2013-04-08 06:31:00,65.7,59.4,29.52,SSE,165,5.0,11.0,80,0.00,,---,0.00,0.00,VWS V14.01,2013-04-08 11:31:00,
2013-04-08 06:36:00,65.6,59.3,29.53,SSE,167,3.0,11.0,80,0.00,,---,0.00,0.00,VWS V14.01,2013-04-08 11:36:00,
2013-04-08 06:41:00,65.5,59.5,29.53,SSE,164,5.0,12.0,81,0.00,,---,0.00,0.00,VWS V14.01,2013-04-08 11:41:00,
2013-04-08 06:46:00,65.4,59.4,29.53,SSE,164,5.0,12.0,81,0.00,,---,0.00,0.00,VWS V14.01,2013-04-08 11:46:00,
2013-04-08 06:51:00,65.3,59.3,29.53,SSE,155,3.0,12.0,81,0.00,,---,0.00,0.00,VWS V14.01,2013-04-08 11:51:00,
2013-04-08 06:56:00,65.1,59.1,29.53,SSE,165,6.0,12.0,81,0.00,,---,0.00,0.00,VWS V14.01,2013-04-08 11:56:00,
2013-04-08 07:01:00,64.9,59.3,29.53,South,171,5.0,12.0,82,0.00,,---,0.00,0.00,VWS V14.01,2013-04-08 12:01:00,
2013-04-08 07:06:00,64.8,59.2,29.53,SSE,158,5.0,11.0,82,0.00,,---,0.00,0.00,VWS V14.01,2013-04-08 12:06:00,
2013-04-08 07:11:00,64.6,59.0,29.53,SSE,159,5.0,11.0,82,0.00,,---,0.00,0.00,VWS V14.01,2013-04-08 12:11:00,
2013-04-08 07:16:00,64.5,58.9,29.53,SSE,154,6.0,12.0,82,0.00,,---,0.00,0.00,VWS V14.01,2013-04-08 12:16:00,
2013-04-08 07:21:00,64.3,59.0,29.53,SSE,158,5.0,12.0,83,0.00,,---,0.00,7.00,VWS V14.01,2013-04-08 12:21:00,
2013-04-08 07:26:00,64.1,58.8,29.53,SSE,165,6.0,13.0,83,0.00,,---,0.00,12.00,VWS V14.01,2013-04-08 12:26:00,
2013-04-08 07:31:00,64.1,58.8,29.53,SSE,163,5.0,13.0,83,0.00,,---,0.00,19.00,VWS V14.01,2013-04-08 12:31:00,
2013-04-08 07:36:00,64.0,58.7,29.54,SSE,153,8.0,12.0,83,0.00,,---,0.00,26.00,VWS V14.01,2013-04-08 12:36:00,
2013-04-08 07:41:00,64.1,58.8,29.54,SSE,148,3.0,12.0,83,0.00,,---,0.00,35.00,VWS V14.01,2013-04-08 12:41:00,
2013-04-08 07:46:00,64.2,58.9,29.54,SSE,158,6.0,12.0,83,0.00,,---,0.00,46.00,VWS V14.01,2013-04-08 12:46:00,
2013-04-08 07:51:00,64.3,59.0,29.54,SE,143,6.0,14.0,83,0.00,,---,0.00,58.00,VWS V14.01,2013-04-08 12:51:00,
2013-04-08 07:56:00,64.7,59.4,29.55,SSE,163,6.0,14.0,83,0.00,,---,0.00,74.00,VWS V14.01,2013-04-08 12:56:00,
2013-04-08 08:01:00,64.9,59.6,29.54,SE,146,4.0,7.0,83,0.00,,---,0.00,88.00,VWS V14.01,2013-04-08 13:01:00,
2013-04-08 08:06:00,65.3,59.7,29.54,SE,146,7.0,11.0,82,0.00,,---,0.00,107.00,VWS V14.01,2013-04-08 13:06:00,
2013-04-08 08:11:00,65.5,59.9,29.55,SSE,159,3.0,14.0,82,0.00,,---,0.00,128.00,VWS V14.01,2013-04-08 13:11:00,
2013-04-08 08:16:00,65.7,60.1,29.55,SSE,161,10.0,17.0,82,0.00,,---,0.00,149.00,VWS V14.01,2013-04-08 13:16:00,
2013-04-08 08:21:00,65.9,59.9,29.55,SSE,166,7.0,17.0,81,0.00,,---,0.00,172.00,VWS V14.01,2013-04-08 13:21:00,
2013-04-08 08:26:00,66.1,60.1,29.55,South,180,5.0,17.0,81,0.00,,---,0.00,195.00,VWS V14.01,2013-04-08 13:26:00,
2013-04-08 08:31:00,66.2,60.2,29.55,SSE,157,6.0,11.0,81,0.00,,---,0.00,216.00,VWS V14.01,2013-04-08 13:31:00,
2013-04-08 08:36:00,66.5,60.2,29.55,SSE,163,3.0,17.0,80,0.00,,---,0.00,234.00,VWS V14.01,2013-04-08 13:36:00,
2013-04-08 08:41:00,66.8,60.4,29.55,SE,144,3.0,17.0,80,0.00,,---,0.00,255.00,VWS V14.01,2013-04-08 13:41:00,
2013-04-08 08:47:00,67.0,60.6,29.55,SSE,167,7.0,17.0,80,0.00,,---,0.00,281.00,VWS V14.01,2013-04-08 13:47:00,
2013-04-08 08:52:00,67.4,60.7,29.55,SE,144,4.0,19.0,79,0.00,,---,0.00,301.00,VWS V14.01,2013-04-08 13:52:00,
2013-04-08 08:57:00,67.6,60.5,29.55,SSE,155,12.0,21.0,78,0.00,,---,0.00,325.00,VWS V14.01,2013-04-08 13:57:00,
2013-04-08 09:02:00,67.8,60.7,29.55,SE,142,10.0,18.0,78,0.00,,---,0.00,309.00,VWS V14.01,2013-04-08 14:02:00,
2013-04-08 09:07:00,67.9,60.8,29.55,SE,144,6.0,18.0,78,0.00,,---,0.00,345.00,VWS V14.01,2013-04-08 14:07:00,
2013-04-08 09:12:00,68.2,61.1,29.55,SSE,158,9.0,18.0,78,0.00,,---,0.00,346.00,VWS V14.01,2013-04-08 14:12:00,
2013-04-08 09:17:00,68.4,60.9,29.55,SE,137,14.0,18.0,77,0.00,,---,0.00,353.00,VWS V14.01,2013-04-08 14:17:00,
2013-04-08 09:22:00,68.8,60.9,29.56,SSE,166,6.0,18.0,76,0.00,,---,0.00,410.00,VWS V14.01,2013-04-08 14:22:00,
2013-04-08 09:27:00,69.1,61.2,29.56,SE,146,17.0,18.0,76,0.00,,---,0.00,418.00,VWS V14.01,2013-04-08 14:27:00,
2013-04-08 09:32:00,69.2,61.3,29.56,SSE,147,5.0,11.0,76,0.00,,---,0.00,411.00,VWS V14.01,2013-04-08 14:32:00,
2013-04-08 09:37:00,69.5,61.2,29.56,SSE,156,3.0,16.0,75,0.00,,---,0.00,468.00,VWS V14.01,2013-04-08 14:37:00,
2013-04-08 09:42:00,70.1,61.8,29.56,SSE,156,9.0,16.0,75,0.00,,---,0.00,485.00,VWS V14.01,2013-04-08 14:42:00,
2013-04-08 09:47:00,70.7,62.0,29.56,South,173,6.0,16.0,74,0.00,,---,0.00,380.00,VWS V14.01,2013-04-08 14:47:00,
2013-04-08 09:52:00,70.8,61.7,29.56,SSW,192,4.0,16.0,73,0.00,,---,0.00,529.00,VWS V14.01,2013-04-08 14:52:00,
2013-04-08 09:57:00,71.2,61.7,29.56,SSE,167,4.0,16.0,72,0.00,,---,0.00,503.00,VWS V14.01,2013-04-08 14:57:00,
2013-04-08 10:02:00,71.6,61.7,29.56,SE,146,10.0,11.0,71,0.00,,---,0.00,536.00,VWS V14.01,2013-04-08 15:02:00,
2013-04-08 10:07:00,72.0,62.1,29.56,SE,142,14.0,15.0,71,0.00,,---,0.00,462.00,VWS V14.01,2013-04-08 15:07:00,
2013-04-08 10:12:00,72.2,61.9,29.56,South,185,6.0,16.0,70,0.00,,---,0.00,541.00,VWS V14.01,2013-04-08 15:12:00,
2013-04-08 10:17:00,72.6,62.3,29.56,SSE,157,4.0,16.0,70,0.00,,---,0.00,573.00,VWS V14.01,2013-04-08 15:17:00,
2013-04-08 10:22:00,73.1,62.3,29.56,SSE,156,5.0,16.0,69,0.00,,---,0.00,443.00,VWS V14.01,2013-04-08 15:22:00,
2013-04-08 10:27:00,73.3,62.5,29.56,South,180,8.0,16.0,69,0.00,,---,0.00,577.00,VWS V14.01,2013-04-08 15:27:00,
2013-04-08 10:32:00,73.4,62.2,29.55,South,175,10.0,14.0,68,0.00,,---,0.00,626.00,VWS V14.01,2013-04-08 15:32:00,
2013-04-08 10:37:00,74.0,62.8,29.56,SSE,158,7.0,16.0,68,0.00,,---,0.00,577.00,VWS V14.01,2013-04-08 15:37:00,
2013-04-08 10:42:00,74.4,63.2,29.56,SSE,164,7.0,19.0,68,0.00,,---,0.00,629.00,VWS V14.01,2013-04-08 15:42:00,
2013-04-08 10:47:00,74.5,62.8,29.56,SSE,153,1.0,19.0,67,0.00,,---,0.00,668.00,VWS V14.01,2013-04-08 15:47:00,
2013-04-08 10:52:00,75.2,63.5,29.56,SE,142,10.0,19.0,67,0.00,,---,0.00,673.00,VWS V14.01,2013-04-08 15:52:00,
2013-04-08 10:57:00,75.3,62.7,29.56,South,173,6.0,19.0,65,0.00,,---,0.00,675.00,VWS V14.01,2013-04-08 15:57:00,
2013-04-08 11:02:00,75.9,63.3,29.56,SSE,150,5.0,9.0,65,0.00,,---,0.00,722.00,VWS V14.01,2013-04-08 16:02:00,
2013-04-08 11:07:00,76.5,63.4,29.56,SSE,153,9.0,17.0,64,0.00,,---,0.00,731.00,VWS V14.01,2013-04-08 16:07:00,
2013-04-08 11:12:00,76.7,63.2,29.56,SSE,167,7.0,17.0,63,0.00,,---,0.00,733.00,VWS V14.01,2013-04-08 16:12:00,
2013-04-08 11:17:00,77.6,64.0,29.56,SSE,166,3.0,17.0,63,0.00,,---,0.00,752.00,VWS V14.01,2013-04-08 16:17:00,
2013-04-08 11:22:00,77.7,64.1,29.56,SSE,156,7.0,17.0,63,0.00,,---,0.00,763.00,VWS V14.01,2013-04-08 16:22:00,
2013-04-08 11:27:00,77.8,63.3,29.56,South,180,9.0,17.0,61,0.00,,---,0.00,773.00,VWS V14.01,2013-04-08 16:27:00,
2013-04-08 11:32:00,77.6,63.6,29.56,SSE,167,7.0,10.0,62,0.00,,---,0.00,789.00,VWS V14.01,2013-04-08 16:32:00,
2013-04-08 11:37:00,77.8,64.2,29.56,SE,134,11.0,16.0,63,0.00,,---,0.00,798.00,VWS V14.01,2013-04-08 16:37:00,
2013-04-08 11:42:00,77.7,63.7,29.55,SE,146,5.0,16.0,62,0.00,,---,0.00,805.00,VWS V14.01,2013-04-08 16:42:00,
2013-04-08 11:48:00,78.3,63.8,29.55,SSW,200,5.0,16.0,61,0.00,,---,0.00,816.00,VWS V14.01,2013-04-08 16:48:00,
2013-04-08 11:53:00,78.2,63.2,29.55,SE,141,7.0,16.0,60,0.00,,---,0.00,830.00,VWS V14.01,2013-04-08 16:53:00,
2013-04-08 11:58:00,78.0,63.0,29.55,SSE,161,11.0,17.0,60,0.00,,---,0.00,837.00,VWS V14.01,2013-04-08 16:58:00,
2013-04-08 12:03:00,78.3,63.3,29.55,South,175,10.0,16.0,60,0.00,,---,0.00,847.00,VWS V14.01,2013-04-08 17:03:00,
2013-04-08 12:08:00,78.7,63.2,29.55,SSE,159,7.0,16.0,59,0.00,,---,0.00,856.00,VWS V14.01,2013-04-08 17:08:00,
2013-04-08 12:13:00,79.1,63.6,29.55,SSE,151,5.0,18.0,59,0.00,,---,0.00,867.00,VWS V14.01,2013-04-08 17:13:00,
2013-04-08 12:18:00,79.4,63.3,29.55,SSW,192,10.0,18.0,58,0.00,,---,0.00,875.00,VWS V14.01,2013-04-08 17:18:00,
2013-04-08 12:23:00,79.5,63.4,29.54,SE,145,16.0,18.0,58,0.00,,---,0.00,881.00,VWS V14.01,2013-04-08 17:23:00,
2013-04-08 12:28:00,79.9,63.8,29.54,SE,126,12.0,19.0,58,0.00,,---,0.00,881.00,VWS V14.01,2013-04-08 17:28:00,
2013-04-08 12:33:00,80.2,63.1,29.54,South,169,8.0,18.0,56,0.00,,---,0.00,891.00,VWS V14.01,2013-04-08 17:33:00,
2013-04-08 12:38:00,80.7,64.1,29.54,SSE,155,8.0,18.0,57,0.00,,---,0.00,893.00,VWS V14.01,2013-04-08 17:38:00,
2013-04-08 12:43:00,81.0,63.8,29.53,SSE,167,6.0,22.0,56,0.00,,---,0.00,905.00,VWS V14.01,2013-04-08 17:43:00,
2013-04-08 12:48:00,81.1,63.9,29.53,ESE,119,13.0,22.0,56,0.00,,---,0.00,858.00,VWS V14.01,2013-04-08 17:48:00,
2013-04-08 12:53:00,80.8,63.7,29.53,SE,134,8.0,22.0,56,0.00,,---,0.00,918.00,VWS V14.01,2013-04-08 17:53:00,
2013-04-08 12:58:00,81.1,63.9,29.53,South,177,5.0,22.0,56,0.00,,---,0.00,916.00,VWS V14.01,2013-04-08 17:58:00,
2013-04-08 13:03:00,81.5,63.8,29.52,South,174,8.0,15.0,55,0.00,,---,0.00,926.00,VWS V14.01,2013-04-08 18:03:00,
2013-04-08 13:08:00,82.0,64.3,29.51,SSE,158,6.0,20.0,55,0.00,,---,0.00,926.00,VWS V14.01,2013-04-08 18:08:00,
2013-04-08 13:13:00,82.1,64.3,29.51,SSE,148,11.0,21.0,55,0.00,,---,0.00,928.00,VWS V14.01,2013-04-08 18:13:00,
2013-04-08 13:18:00,82.1,64.3,29.51,SE,144,19.0,23.0,55,0.00,,---,0.00,932.00,VWS V14.01,2013-04-08 18:18:00,
2013-04-08 13:23:00,82.4,64.1,29.51,SSE,161,10.0,23.0,54,0.00,,---,0.00,933.00,VWS V14.01,2013-04-08 18:23:00,
2013-04-08 13:28:00,83.0,64.1,29.50,SSE,156,11.0,23.0,53,0.00,,---,0.00,947.00,VWS V14.01,2013-04-08 18:28:00,
2013-04-08 13:33:00,83.4,64.0,29.50,SE,139,8.0,14.0,52,0.00,,---,0.00,944.00,VWS V14.01,2013-04-08 18:33:00,
2013-04-08 13:38:00,83.6,64.1,29.50,SE,132,9.0,17.0,52,0.00,,---,0.00,946.00,VWS V14.01,2013-04-08 18:38:00,
2013-04-08 13:43:00,83.8,63.2,29.50,SSE,167,5.0,22.0,50,0.00,,---,0.00,940.00,VWS V14.01,2013-04-08 18:43:00,
2013-04-08 13:48:00,84.0,63.9,29.49,SE,135,6.0,22.0,51,0.00,,---,0.00,939.00,VWS V14.01,2013-04-08 18:48:00,
2013-04-08 13:53:00,83.8,63.8,29.49,SSE,160,4.0,22.0,51,0.00,,---,0.00,939.00,VWS V14.01,2013-04-08 18:53:00,
2013-04-08 13:58:00,84.5,63.8,29.49,SSE,148,9.0,22.0,50,0.00,,---,0.00,933.00,VWS V14.01,2013-04-08 18:58:00,
2013-04-08 14:03:00,84.5,63.8,29.48,SSE,167,8.0,17.0,50,0.00,,---,0.00,933.00,VWS V14.01,2013-04-08 19:03:00,
2013-04-08 14:08:00,84.5,63.3,29.48,SSE,149,12.0,21.0,49,0.00,,---,0.00,932.00,VWS V14.01,2013-04-08 19:08:00,
2013-04-08 14:13:00,84.5,62.7,29.48,SSE,161,24.0,24.0,48,0.00,,---,0.00,928.00,VWS V14.01,2013-04-08 19:13:00,
2013-04-08 14:17:00,84.6,62.8,29.48,SSE,152,5.0,24.0,48,0.00,,---,0.00,926.00,VWS V14.01,2013-04-08 19:17:00,
2013-04-08 14:23:00,85.6,62.5,29.47,SSE,150,8.0,24.0,46,0.00,,---,0.00,923.00,VWS V14.01,2013-04-08 19:23:00,
2013-04-08 14:28:00,85.9,62.7,29.47,SSE,150,8.0,24.0,46,0.00,,---,0.00,916.00,VWS V14.01,2013-04-08 19:28:00,
2013-04-08 14:33:00,85.9,61.5,29.47,SE,146,11.0,16.0,44,0.00,,---,0.00,911.00,VWS V14.01,2013-04-08 19:33:00,
2013-04-08 14:38:00,85.6,61.8,29.46,SSE,152,13.0,22.0,45,0.00,,---,0.00,912.00,VWS V14.01,2013-04-08 19:38:00,
2013-04-08 14:43:00,86.1,62.3,29.46,SE,134,13.0,22.0,45,0.00,,---,0.00,902.00,VWS V14.01,2013-04-08 19:43:00,
2013-04-08 14:48:00,86.3,61.8,29.46,South,183,12.0,22.0,44,0.00,,---,0.00,898.00,VWS V14.01,2013-04-08 19:48:00,
2013-04-08 14:53:00,86.2,62.4,29.46,SSE,150,9.0,25.0,45,0.00,,---,0.00,888.00,VWS V14.01,2013-04-08 19:53:00,
2013-04-08 14:58:00,86.7,62.8,29.46,SE,136,25.0,25.0,45,0.00,,---,0.00,886.00,VWS V14.01,2013-04-08 19:58:00,
2013-04-08 15:03:00,86.5,61.4,29.45,SSE,148,13.0,18.0,43,0.00,,---,0.00,875.00,VWS V14.01,2013-04-08 20:03:00,
2013-04-08 15:08:00,86.9,62.4,29.45,SE,136,13.0,21.0,44,0.00,,---,0.00,870.00,VWS V14.01,2013-04-08 20:08:00,
2013-04-08 15:13:00,86.4,61.9,29.45,SSE,150,13.0,23.0,44,0.00,,---,0.00,860.00,VWS V14.01,2013-04-08 20:13:00,
2013-04-08 15:18:00,86.6,62.1,29.45,SE,142,13.0,23.0,44,0.00,,---,0.00,853.00,VWS V14.01,2013-04-08 20:18:00,
2013-04-08 15:22:00,87.1,61.2,29.44,SSE,155,15.0,23.0,42,0.00,,---,0.00,840.00,VWS V14.01,2013-04-08 20:22:00,
2013-04-08 15:27:00,87.2,62.0,29.44,SSE,149,19.0,24.0,43,0.00,,---,0.00,837.00,VWS V14.01,2013-04-08 20:27:00,
2013-04-08 15:32:00,86.8,62.3,29.43,SSE,159,8.0,14.0,44,0.00,,---,0.00,828.00,VWS V14.01,2013-04-08 20:32:00,
2013-04-08 15:37:00,87.0,61.2,29.43,SE,140,7.0,21.0,42,0.00,,---,0.00,812.00,VWS V14.01,2013-04-08 20:37:00,
2013-04-08 15:42:00,87.3,61.4,29.43,SE,144,8.0,22.0,42,0.00,,---,0.00,803.00,VWS V14.01,2013-04-08 20:42:00,
2013-04-08 15:47:00,87.1,61.2,29.42,SE,144,7.0,22.0,42,0.00,,---,0.00,795.00,VWS V14.01,2013-04-08 20:47:00,
2013-04-08 15:52:00,87.0,61.2,29.42,SE,138,9.0,22.0,42,0.00,,---,0.00,788.00,VWS V14.01,2013-04-08 20:52:00,
2013-04-08 15:58:00,87.1,61.9,29.42,SE,140,10.0,22.0,43,0.00,,---,0.00,768.00,VWS V14.01,2013-04-08 20:58:00,
2013-04-08 16:03:00,86.8,60.3,29.42,SE,142,14.0,19.0,41,0.00,,---,0.00,758.00,VWS V14.01,2013-04-08 21:03:00,
2013-04-08 16:07:00,87.0,61.8,29.41,SE,131,4.0,22.0,43,0.00,,---,0.00,745.00,VWS V14.01,2013-04-08 21:07:00,
2013-04-08 16:12:00,87.3,60.8,29.41,SE,144,9.0,22.0,41,0.00,,---,0.00,737.00,VWS V14.01,2013-04-08 21:12:00,
2013-04-08 16:17:00,86.9,61.1,29.41,SE,134,19.0,25.0,42,0.00,,---,0.00,721.00,VWS V14.01,2013-04-08 21:17:00,
2013-04-08 16:22:00,86.2,63.6,29.41,ESE,110,10.0,25.0,47,0.00,,---,0.00,636.00,VWS V14.01,2013-04-08 21:22:00,
2013-04-08 16:27:00,85.9,64.0,29.41,SE,128,8.0,25.0,48,0.00,,---,0.00,701.00,VWS V14.01,2013-04-08 21:27:00,
2013-04-08 16:32:00,85.6,64.3,29.41,SSE,155,15.0,23.0,49,0.00,,---,0.00,682.00,VWS V14.01,2013-04-08 21:32:00,
2013-04-08 16:37:00,85.5,64.2,29.41,ESE,115,7.0,23.0,49,0.00,,---,0.00,673.00,VWS V14.01,2013-04-08 21:37:00,
2013-04-08 16:42:00,84.8,64.1,29.41,ESE,115,11.0,23.0,50,0.00,,---,0.00,533.00,VWS V14.01,2013-04-08 21:42:00,
2013-04-08 16:47:00,84.1,64.0,29.41,SE,126,7.0,23.0,51,0.00,,---,0.00,608.00,VWS V14.01,2013-04-08 21:47:00,
2013-04-08 16:52:00,84.0,63.9,29.41,SSE,153,20.0,24.0,51,0.00,,---,0.00,561.00,VWS V14.01,2013-04-08 21:52:00,
2013-04-08 16:57:00,83.9,63.8,29.42,ESE,118,9.0,24.0,51,0.00,,---,0.00,519.00,VWS V14.01,2013-04-08 21:57:00,
2013-04-08 17:02:00,83.5,64.0,29.42,SSE,149,21.0,21.0,52,0.00,,---,0.00,610.00,VWS V14.01,2013-04-08 22:02:00,
2013-04-08 17:07:00,83.3,64.4,29.42,East,100,8.0,23.0,53,0.00,,---,0.00,577.00,VWS V14.01,2013-04-08 22:07:00,
2013-04-08 17:12:00,83.0,63.6,29.41,ESE,112,11.0,23.0,52,0.00,,---,0.00,555.00,VWS V14.01,2013-04-08 22:12:00,
2013-04-08 17:17:00,82.3,63.5,29.41,SE,128,9.0,23.0,53,0.00,,---,0.00,557.00,VWS V14.01,2013-04-08 22:17:00,
2013-04-08 17:22:00,82.3,64.0,29.42,SSE,154,6.0,23.0,54,0.00,,---,0.00,533.00,VWS V14.01,2013-04-08 22:22:00,
2013-04-08 17:27:00,82.1,63.3,29.42,ESE,115,7.0,23.0,53,0.00,,---,0.00,529.00,VWS V14.01,2013-04-08 22:27:00,
2013-04-08 17:32:00,81.6,63.4,29.42,ESE,115,13.0,16.0,54,0.00,,---,0.00,478.00,VWS V14.01,2013-04-08 22:32:00,
2013-04-08 17:37:00,81.5,63.3,29.42,SSE,147,17.0,17.0,54,0.00,,---,0.00,489.00,VWS V14.01,2013-04-08 22:37:00,
2013-04-08 17:42:00,81.7,63.5,29.42,ESE,109,7.0,20.0,54,0.00,,---,0.00,462.00,VWS V14.01,2013-04-08 22:42:00,
2013-04-08 17:47:00,81.7,62.9,29.41,SE,146,6.0,20.0,53,0.00,,---,0.00,443.00,VWS V14.01,2013-04-08 22:47:00,
2013-04-08 17:52:00,81.6,63.4,29.41,SE,131,10.0,20.0,54,0.00,,---,0.00,422.00,VWS V14.01,2013-04-08 22:52:00,
2013-04-08 17:57:00,81.0,63.3,29.41,SSE,154,13.0,20.0,55,0.00,,---,0.00,403.00,VWS V14.01,2013-04-08 22:57:00,
2013-04-08 18:02:00,80.8,62.6,29.41,ESE,121,5.0,17.0,54,0.00,,---,0.00,381.00,VWS V14.01,2013-04-08 23:02:00,
2013-04-08 18:07:00,80.7,63.0,29.41,ESE,111,12.0,22.0,55,0.00,,---,0.00,364.00,VWS V14.01,2013-04-08 23:07:00,
2013-04-08 18:13:00,80.2,63.1,29.41,ESE,103,13.0,22.0,56,0.00,,---,0.00,345.00,VWS V14.01,2013-04-08 23:13:00,
2013-04-08 18:17:00,80.0,63.4,29.41,SE,140,22.0,22.0,57,0.00,,---,0.00,322.00,VWS V14.01,2013-04-08 23:17:00,
2013-04-08 18:22:00,79.8,62.7,29.41,SE,125,4.0,24.0,56,0.00,,---,0.00,105.00,VWS V14.01,2013-04-08 23:22:00,
2013-04-08 18:27:00,79.0,62.5,29.41,SE,137,13.0,24.0,57,0.00,,---,0.00,155.00,VWS V14.01,2013-04-08 23:27:00,
2013-04-08 18:32:00,78.8,62.8,29.41,ESE,110,14.0,20.0,58,0.00,,---,0.00,104.00,VWS V14.01,2013-04-08 23:32:00,
2013-04-08 18:37:00,78.5,62.0,29.41,ESE,112,11.0,20.0,57,0.00,,---,0.00,246.00,VWS V14.01,2013-04-08 23:37:00,
2013-04-08 18:42:00,78.5,62.5,29.41,ESE,119,9.0,21.0,58,0.00,,---,0.00,229.00,VWS V14.01,2013-04-08 23:42:00,
2013-04-08 18:47:00,78.6,62.1,29.40,ESE,122,12.0,21.0,57,0.00,,---,0.00,207.00,VWS V14.01,2013-04-08 23:47:00,
2013-04-08 18:52:00,78.7,62.2,29.40,ESE,123,8.0,21.0,57,0.00,,---,0.00,181.00,VWS V14.01,2013-04-08 23:52:00,
2013-04-08 18:57:00,78.5,62.5,29.41,SE,134,9.0,21.0,58,0.00,,---,0.00,156.00,VWS V14.01,2013-04-08 23:57:00,
2013-04-08 19:02:00,78.1,62.1,29.41,SE,135,10.0,16.0,58,0.00,,---,0.00,135.00,VWS V14.01,2013-04-09 00:02:00,
2013-04-08 19:07:00,77.8,62.3,29.41,SE,124,7.0,17.0,59,0.00,,---,0.00,118.00,VWS V14.01,2013-04-09 00:07:00,
2013-04-08 19:12:00,77.6,62.2,29.41,ESE,119,8.0,17.0,59,0.00,,---,0.00,98.00,VWS V14.01,2013-04-09 00:12:00,
2013-04-08 19:17:00,77.5,62.1,29.41,SE,126,7.0,22.0,59,0.00,,---,0.00,81.00,VWS V14.01,2013-04-09 00:17:00,
2013-04-08 19:22:00,77.3,61.9,29.41,ESE,123,8.0,22.0,59,0.00,,---,0.00,67.00,VWS V14.01,2013-04-09 00:22:00,
2013-04-08 19:27:00,77.1,61.7,29.41,ESE,121,8.0,22.0,59,0.00,,---,0.00,54.00,VWS V14.01,2013-04-09 00:27:00,
2013-04-08 19:32:00,76.8,61.9,29.41,SE,131,7.0,13.0,60,0.00,,---,0.00,42.00,VWS V14.01,2013-04-09 00:32:00,
2013-04-08 19:37:00,76.6,61.7,29.41,ESE,119,10.0,20.0,60,0.00,,---,0.00,32.00,VWS V14.01,2013-04-09 00:37:00,
2013-04-08 19:42:00,76.4,62.0,29.41,ESE,108,10.0,20.0,61,0.00,,---,0.00,26.00,VWS V14.01,2013-04-09 00:42:00,
2013-04-08 19:47:00,76.3,61.9,29.42,ESE,121,14.0,20.0,61,0.00,,---,0.00,19.00,VWS V14.01,2013-04-09 00:47:00,
2013-04-08 19:52:00,76.1,62.2,29.42,ESE,121,8.0,20.0,62,0.00,,---,0.00,14.00,VWS V14.01,2013-04-09 00:52:00,
2013-04-08 19:57:00,75.6,61.7,29.42,ESE,112,8.0,20.0,62,0.00,,---,0.00,11.00,VWS V14.01,2013-04-09 00:57:00,
2013-04-08 20:02:00,75.2,61.8,29.42,SE,134,5.0,17.0,63,0.00,,---,0.00,5.00,VWS V14.01,2013-04-09 01:02:00,
2013-04-08 20:07:00,75.1,62.1,29.42,ESE,118,10.0,20.0,64,0.00,,---,0.00,0.00,VWS V14.01,2013-04-09 01:07:00,
2013-04-08 20:12:00,75.0,62.0,29.42,ESE,117,7.0,20.0,64,0.00,,---,0.00,0.00,VWS V14.01,2013-04-09 01:12:00,
2013-04-08 20:17:00,74.8,61.8,29.42,ESE,123,8.0,20.0,64,0.00,,---,0.00,0.00,VWS V14.01,2013-04-09 01:17:00,
2013-04-08 20:22:00,74.6,62.1,29.42,ESE,113,12.0,20.0,65,0.00,,---,0.00,0.00,VWS V14.01,2013-04-09 01:22:00,
2013-04-08 20:27:00,74.1,62.0,29.43,SE,137,6.0,20.0,66,0.00,,---,0.00,0.00,VWS V14.01,2013-04-09 01:27:00,
2013-04-08 20:33:00,73.9,61.8,29.43,ESE,107,8.0,15.0,66,0.00,,---,0.00,0.00,VWS V14.01,2013-04-09 01:33:00,
2013-04-08 20:38:00,73.7,62.1,29.43,SE,128,7.0,15.0,67,0.00,,---,0.00,0.00,VWS V14.01,2013-04-09 01:38:00,
2013-04-08 20:43:00,73.7,62.1,29.43,ESE,113,9.0,16.0,67,0.00,,---,0.00,0.00,VWS V14.01,2013-04-09 01:43:00,
2013-04-08 20:48:00,73.7,62.1,29.43,SE,138,7.0,16.0,67,0.00,,---,0.00,0.00,VWS V14.01,2013-04-09 01:48:00,
2013-04-08 20:53:00,73.5,61.9,29.43,ESE,112,9.0,16.0,67,0.00,,---,0.00,0.00,VWS V14.01,2013-04-09 01:53:00,
2013-04-08 20:58:00,73.3,62.1,29.43,SE,126,8.0,16.0,68,0.00,,---,0.00,0.00,VWS V14.01,2013-04-09 01:58:00,
2013-04-08 21:03:00,73.0,61.8,29.44,ESE,123,7.0,12.0,68,0.00,,---,0.00,0.00,VWS V14.01,2013-04-09 02:03:00,
2013-04-08 21:08:00,72.8,62.0,29.44,ESE,115,9.0,15.0,69,0.00,,---,0.00,0.00,VWS V14.01,2013-04-09 02:08:00,
2013-04-08 21:13:00,72.6,61.9,29.44,SE,129,12.0,17.0,69,0.00,,---,0.00,0.00,VWS V14.01,2013-04-09 02:13:00,
2013-04-08 21:18:00,72.5,62.2,29.44,ESE,111,10.0,17.0,70,0.00,,---,0.00,0.00,VWS V14.01,2013-04-09 02:18:00,
2013-04-08 21:23:00,72.4,62.1,29.44,SE,128,8.0,17.0,70,0.00,,---,0.00,0.00,VWS V14.01,2013-04-09 02:23:00,
2013-04-08 21:28:00,72.4,62.5,29.45,ESE,115,11.0,18.0,71,0.00,,---,0.00,0.00,VWS V14.01,2013-04-09 02:28:00,
2013-04-08 21:33:00,72.3,62.4,29.45,SE,125,6.0,14.0,71,0.00,,---,0.00,0.00,VWS V14.01,2013-04-09 02:33:00,
2013-04-08 21:38:00,72.1,62.2,29.45,SE,134,6.0,14.0,71,0.00,,---,0.00,0.00,VWS V14.01,2013-04-09 02:38:00,
2013-04-08 21:43:00,72.1,62.2,29.45,SE,132,6.0,17.0,71,0.00,,---,0.00,0.00,VWS V14.01,2013-04-09 02:43:00,
2013-04-08 21:48:00,72.1,62.2,29.46,ESE,115,8.0,19.0,71,0.00,,---,0.00,0.00,VWS V14.01,2013-04-09 02:48:00,
2013-04-08 21:53:00,71.9,62.0,29.46,ESE,115,11.0,19.0,71,0.00,,---,0.00,0.00,VWS V14.01,2013-04-09 02:53:00,
2013-04-08 21:58:00,71.6,62.1,29.46,SE,131,9.0,19.0,72,0.00,,---,0.00,0.00,VWS V14.01,2013-04-09 02:58:00,
2013-04-08 22:03:00,71.2,62.1,29.46,SE,124,6.0,13.0,73,0.00,,---,0.00,0.00,VWS V14.01,2013-04-09 03:03:00,
2013-04-08 22:08:00,70.9,62.2,29.47,SE,127,7.0,22.0,74,0.00,,---,0.00,0.00,VWS V14.01,2013-04-09 03:08:00,
2013-04-08 22:13:00,70.6,61.9,29.47,SE,137,10.0,22.0,74,0.00,,---,0.00,0.00,VWS V14.01,2013-04-09 03:13:00,
2013-04-08 22:18:00,70.5,62.2,29.47,SE,136,6.0,22.0,75,0.00,,---,0.00,0.00,VWS V14.01,2013-04-09 03:18:00,
2013-04-08 22:23:00,70.4,62.1,29.47,ESE,111,14.0,22.0,75,0.00,,---,0.00,0.00,VWS V14.01,2013-04-09 03:23:00,
2013-04-08 22:28:00,70.3,62.4,29.47,ESE,119,11.0,22.0,76,0.00,,---,0.00,0.00,VWS V14.01,2013-04-09 03:28:00,
2013-04-08 22:33:00,70.2,62.3,29.47,SE,131,7.0,15.0,76,0.00,,---,0.00,0.00,VWS V14.01,2013-04-09 03:33:00,
2013-04-08 22:38:00,70.1,62.2,29.47,SE,130,6.0,18.0,76,0.00,,---,0.00,0.00,VWS V14.01,2013-04-09 03:38:00,
2013-04-08 22:43:00,69.8,61.9,29.47,ESE,105,10.0,18.0,76,0.00,,---,0.00,0.00,VWS V14.01,2013-04-09 03:43:00,
2013-04-08 22:48:00,69.6,62.1,29.47,ESE,121,8.0,18.0,77,0.00,,---,0.00,0.00,VWS V14.01,2013-04-09 03:48:00,
2013-04-08 22:53:00,69.4,61.9,29.47,SE,133,10.0,18.0,77,0.00,,---,0.00,0.00,VWS V14.01,2013-04-09 03:53:00,
2013-04-08 22:58:00,69.3,62.2,29.47,SSE,151,10.0,18.0,78,0.00,,---,0.00,0.00,VWS V14.01,2013-04-09 03:58:00,
2013-04-08 23:00:00,69.3,62.2,29.47,ESE,121,12.0,18.0,78,0.00,,---,0.00,0.00,VWS V14.01,2013-04-09 04:00:00,
2013-04-08 23:05:00,69.3,62.2,29.47,SE,134,5.0,19.0,78,0.00,,---,0.00,0.00,VWS V14.01,2013-04-09 04:05:00,
2013-04-08 23:10:00,69.2,62.1,29.47,SSE,149,9.0,19.0,78,0.00,,---,0.00,0.00,VWS V14.01,2013-04-09 04:10:00,
2013-04-08 23:15:00,68.9,61.8,29.47,SE,144,10.0,19.0,78,0.00,,---,0.00,0.00,VWS V14.01,2013-04-09 04:15:00,
2013-04-08 23:20:00,68.9,61.8,29.47,SE,128,4.0,19.0,78,0.00,,---,0.00,0.00,VWS V14.01,2013-04-09 04:20:00,
2013-04-08 23:25:00,68.8,62.0,29.47,SE,134,5.0,21.0,79,0.00,,---,0.00,0.00,VWS V14.01,2013-04-09 04:25:00,
2013-04-08 23:30:00,68.7,61.9,29.47,SE,142,7.0,21.0,79,0.00,,---,0.00,0.00,VWS V14.01,2013-04-09 04:30:00,
2013-04-08 23:35:00,68.6,61.8,29.47,SE,124,9.0,16.0,79,0.00,,---,0.00,0.00,VWS V14.01,2013-04-09 04:35:00,
2013-04-08 23:40:00,68.6,61.8,29.47,SSE,150,7.0,16.0,79,0.00,,---,0.00,0.00,VWS V14.01,2013-04-09 04:40:00,
2013-04-08 23:45:00,68.5,61.7,29.46,SE,128,11.0,16.0,79,0.00,,---,0.00,0.00,VWS V14.01,2013-04-09 04:45:00,
2013-04-08 23:50:00,68.6,61.8,29.46,SSE,150,16.0,19.0,79,0.00,,---,0.00,0.00,VWS V14.01,2013-04-09 04:50:00,
2013-04-08 23:55:00,68.7,61.9,29.46,SE,146,17.0,21.0,79,0.00,,---,0.00,0.00,VWS V14.01,2013-04-09 04:55:00,